Total_Precipitation_Accumulation
1.10 1.08 1.08 1.05 0.95 0.88 0.83 0.76 0.66 0.60 0.57 0.56 0.55 0.54 0.53 0.55 0.60 0.67 0.70 0.73 0.78 0.76 0.75 0.73 0.70 0.69 0.71 0.74 0.80 0.90 1.02 1.13 1.22 1.12 0.94 0.87 0.87 0.90 0.95 0.86 0.83 0.78 0.72
0.91 0.97 0.99 0.92 0.85 0.79 0.72 0.65 0.61 0.55 0.53 0.55 0.56 0.52 0.48 0.46 0.50 0.58 0.63 0.65 0.73 0.74 0.73 0.73 0.69 0.68 0.70 0.71 0.74 0.79 0.91 1.04 1.15 1.19 1.04 0.93 0.89 0.84 0.82 0.78 0.67 0.62 0.64
0.73 0.73 0.77 0.75 0.71 0.67 0.58 0.53 0.50 0.48 0.48 0.47 0.45 0.44 0.42 0.42 0.42 0.44 0.49 0.53 0.60 0.65 0.67 0.74 0.75 0.72 0.70 0.70 0.74 0.78 0.89 1.00 1.13 1.15 1.06 0.97 0.95 0.90 0.93 0.87 0.77 0.82 0.71
0.67 0.65 0.66 0.64 0.63 0.63 0.56 0.52 0.46 0.43 0.42 0.39 0.35 0.33 0.34 0.33 0.32 0.31 0.32 0.37 0.42 0.47 0.52 0.66 0.73 0.71 0.70 0.74 0.78 0.82 0.88 1.00 1.07 1.09 1.02 0.94 0.94 0.96 0.99 1.03 1.00 0.94 0.83
0.66 0.68 0.68 0.61 0.58 0.61 0.62 0.55 0.49 0.44 0.38 0.36 0.32 0.27 0.27 0.25 0.25 0.25 0.26 0.27 0.34 0.39 0.42 0.52 0.58 0.62 0.64 0.68 0.69 0.75 0.86 1.00 1.07 1.11 1.04 0.98 0.93 1.03 1.06 1.02 0.99 0.99 0.86
0.62 0.70 0.74 0.70 0.66 0.67 0.69 0.65 0.56 0.49 0.43 0.34 0.29 0.27 0.25 0.21 0.23 0.23 0.25 0.30 0.36 0.43 0.49 0.52 0.50 0.52 0.51 0.50 0.56 0.63 0.75 0.91 1.06 1.14 1.09 1.04 0.98 1.02 1.09 1.06 1.06 1.06 1.02
0.70 0.69 0.73 0.74 0.75 0.71 0.65 0.65 0.60 0.52 0.44 0.38 0.31 0.29 0.28 0.21 0.18 0.17 0.20 0.30 0.41 0.48 0.52 0.52 0.44 0.43 0.52 0.55 0.56 0.57 0.66 0.76 0.92 1.12 1.19 1.09 1.03 1.04 1.15 1.19 1.13 1.11 1.10
0.76 0.73 0.67 0.64 0.61 0.58 0.58 0.60 0.57 0.51 0.44 0.41 0.34 0.29 0.30 0.20 0.16 0.15 0.17 0.25 0.32 0.35 0.36 0.42 0.51 0.54 0.48 0.49 0.51 0.62 0.70 0.80 0.86 0.94 1.09 1.02 0.95 0.97 1.07 1.11 1.04 1.01 0.96
0.72 0.67 0.59 0.51 0.49 0.49 0.52 0.54 0.50 0.47 0.44 0.39 0.34 0.32 0.33 0.26 0.18 0.15 0.17 0.25 0.29 0.28 0.25 0.29 0.35 0.40 0.39 0.44 0.55 0.72 0.78 0.88 0.92 1.07 1.07 1.00 0.96 0.94 0.85 0.86 1.03 1.15 1.11
0.60 0.54 0.47 0.43 0.42 0.44 0.45 0.46 0.44 0.42 0.38 0.34 0.32 0.33 0.31 0.27 0.18 0.14 0.15 0.21 0.28 0.26 0.29 0.33 0.31 0.27 0.31 0.40 0.58 0.78 0.91 0.96 1.06 1.26 1.22 1.17 1.08 1.01 0.88 0.86 1.07 1.25 1.23
0.44 0.44 0.44 0.43 0.42 0.40 0.41 0.43 0.41 0.37 0.37 0.35 0.36 0.35 0.30 0.23 0.16 0.10 0.10 0.16 0.21 0.26 0.33 0.37 0.36 0.30 0.31 0.36 0.51 0.71 0.88 0.93 1.15 1.41 1.31 1.14 1.05 0.98 0.95 0.95 1.03 1.10 1.08
0.39 0.42 0.44 0.41 0.35 0.32 0.39 0.43 0.38 0.40 0.41 0.42 0.41 0.36 0.29 0.21 0.15 0.11 0.09 0.08 0.12 0.28 0.42 0.39 0.36 0.35 0.35 0.42 0.56 0.73 0.87 1.05 1.23 1.33 1.14 0.97 0.86 0.83 0.84 0.79 0.74 0.75 0.81
0.39 0.45 0.44 0.38 0.39 0.36 0.37 0.38 0.37 0.38 0.35 0.33 0.34 0.32 0.29 0.25 0.20 0.14 0.11 0.10 0.13 0.24 0.38 0.40 0.39 0.38 0.48 0.68 0.80 0.91 1.05 1.25 1.29 1.15 1.00 0.88 0.73 0.68 0.63 0.62 0.60 0.64 0.67
0.39 0.41 0.40 0.41 0.42 0.42 0.38 0.28 0.26 0.28 0.26 0.25 0.28 0.30 0.32 0.31 0.24 0.18 0.19 0.20 0.21 0.26 0.36 0.48 0.54 0.57 0.73 0.94 1.10 1.19 1.27 1.30 1.15 1.01 0.90 0.78 0.64 0.61 0.59 0.54 0.56 0.59 0.64
0.33 0.35 0.35 0.36 0.37 0.43 0.38 0.23 0.16 0.14 0.11 0.15 0.20 0.22 0.28 0.28 0.18 0.16 0.18 0.21 0.24 0.27 0.34 0.51 0.66 0.71 0.84 0.99 1.13 1.21 1.26 1.23 1.13 0.98 0.87 0.76 0.65 0.59 0.56 0.48 0.48 0.50 0.54
0.31 0.28 0.22 0.21 0.25 0.27 0.31 0.27 0.14 0.06 0.04 0.05 0.07 0.10 0.12 0.15 0.13 0.12 0.14 0.19 0.23 0.31 0.40 0.62 0.73 0.73 0.80 0.90 1.01 1.09 1.08 1.04 0.97 0.92 0.87 0.80 0.70 0.59 0.55 0.51 0.47 0.47 0.52
0.25 0.22 0.14 0.11 0.15 0.19 0.22 0.29 0.28 0.15 0.06 0.04 0.03 0.05 0.07 0.09 0.11 0.11 0.13 0.18 0.23 0.33 0.46 0.66 0.76 0.81 0.85 0.88 0.89 0.92 0.97 0.95 0.87 0.82 0.78 0.72 0.63 0.56 0.52 0.49 0.45 0.44 0.45
0.13 0.10 0.10 0.12 0.12 0.13 0.14 0.17 0.21 0.27 0.26 0.19 0.09 0.05 0.07 0.10 0.12 0.12 0.15 0.20 0.27 0.32 0.47 0.62 0.73 0.79 0.84 0.85 0.83 0.79 0.82 0.84 0.78 0.70 0.65 0.60 0.55 0.52 0.48 0.45 0.41 0.34 0.33
0.13 0.12 0.10 0.08 0.07 0.07 0.08 0.09 0.13 0.18 0.22 0.24 0.21 0.13 0.10 0.13 0.16 0.17 0.21 0.28 0.35 0.36 0.43 0.54 0.64 0.70 0.71 0.71 0.72 0.70 0.71 0.72 0.68 0.62 0.58 0.54 0.51 0.47 0.43 0.35 0.30 0.22 0.25
0.07 0.05 0.05 0.06 0.05 0.05 0.05 0.07 0.10 0.15 0.18 0.19 0.22 0.21 0.17 0.26 0.37 0.34 0.30 0.33 0.34 0.34 0.38 0.49 0.58 0.60 0.58 0.53 0.51 0.51 0.53 0.53 0.53 0.52 0.50 0.48 0.44 0.39 0.32 0.26 0.23 0.23 0.25
0.04 0.03 0.02 0.03 0.04 0.05 0.04 0.04 0.06 0.10 0.14 0.18 0.15 0.15 0.23 0.32 0.41 0.41 0.39 0.41 0.42 0.38 0.37 0.41 0.45 0.48 0.46 0.42 0.38 0.36 0.37 0.39 0.40 0.41 0.42 0.42 0.36 0.31 0.26 0.21 0.18 0.16 0.17
0.03 0.02 0.03 0.03 0.04 0.04 0.04 0.03 0.04 0.05 0.08 0.13 0.14 0.13 0.23 0.28 0.33 0.38 0.41 0.44 0.47 0.44 0.40 0.40 0.40 0.39 0.37 0.35 0.32 0.29 0.28 0.29 0.30 0.33 0.36 0.35 0.31 0.25 0.19 0.15 0.12 0.11 0.10
0.02 0.02 0.03 0.03 0.03 0.03 0.03 0.04 0.04 0.03 0.05 0.09 0.11 0.14 0.20 0.28 0.33 0.39 0.45 0.46 0.46 0.47 0.42 0.38 0.39 0.39 0.35 0.30 0.28 0.25 0.24 0.24 0.25 0.29 0.35 0.35 0.29 0.22 0.15 0.11 0.09 0.07 0.06
0.01 0.01 0.02 0.03 0.03 0.03 0.04 0.04 0.03 0.03 0.03 0.05 0.08 0.11 0.17 0.23 0.27 0.32 0.38 0.43 0.46 0.47 0.45 0.44 0.43 0.41 0.36 0.31 0.27 0.24 0.25 0.25 0.24 0.28 0.30 0.32 0.27 0.18 0.12 0.10 0.08 0.07 0.08
0.01 0.02 0.03 0.02 0.02 0.02 0.03 0.03 0.03 0.03 0.03 0.04 0.05 0.08 0.12 0.15 0.17 0.21 0.27 0.33 0.37 0.40 0.42 0.44 0.42 0.38 0.34 0.29 0.26 0.23 0.25 0.23 0.20 0.23 0.29 0.32 0.25 0.18 0.14 0.11 0.10 0.09 0.09
0.01 0.01 0.02 0.02 0.01 0.01 0.02 0.02 0.02 0.03 0.04 0.04 0.04 0.07 0.09 0.12 0.15 0.18 0.21 0.24 0.27 0.30 0.33 0.38 0.37 0.29 0.22 0.20 0.19 0.16 0.14 0.11 0.10 0.13 0.23 0.27 0.22 0.18 0.18 0.15 0.10 0.10 0.11